Time,TemperatureF,DewpointF,PressureIn,WindDirection,WindDirectionDegrees,WindSpeedMPH,WindSpeedGustMPH,Humidity,HourlyPrecipIn,Conditions,Clouds,dailyrainin,SoftwareType,DateUTC
2013-03-30 00:02:00,30.0,21.0,30.00,SW,225,0.0,0.0,69,0.00,,,0.00,WUHU216HW,2013-03-30 05:02:00,
2013-03-30 00:07:00,30.0,21.0,30.00,WSW,248,0.0,0.0,69,0.00,,,0.00,WUHU216HW,2013-03-30 05:07:00,
2013-03-30 00:12:00,30.3,21.3,30.00,WSW,248,0.0,0.0,69,0.00,,,0.00,WUHU216HW,2013-03-30 05:12:00,
2013-03-30 00:17:00,30.5,21.5,30.00,WSW,248,0.0,0.0,69,0.00,,,0.00,WUHU216HW,2013-03-30 05:17:00,
2013-03-30 00:22:00,30.7,21.7,30.00,SW,225,0.0,0.0,69,0.00,,,0.00,WUHU216HW,2013-03-30 05:22:00,
2013-03-30 00:27:00,30.7,21.7,30.00,SSW,203,0.0,0.0,69,0.00,,,0.00,WUHU216HW,2013-03-30 05:27:00,
2013-03-30 00:33:00,30.3,21.3,30.00,WSW,248,0.0,0.0,69,0.00,,,0.00,WUHU216HW,2013-03-30 05:33:00,
2013-03-30 00:38:00,30.3,21.3,30.00,SSW,203,0.0,0.0,69,0.00,,,0.00,WUHU216HW,2013-03-30 05:38:00,
2013-03-30 00:43:00,30.2,21.2,30.00,SW,225,0.0,0.0,69,0.00,,,0.00,WUHU216HW,2013-03-30 05:43:00,
2013-03-30 00:48:00,30.2,21.2,30.00,SW,225,0.0,0.0,69,0.00,,,0.00,WUHU216HW,2013-03-30 05:48:00,
2013-03-30 00:53:00,30.0,21.0,30.00,SW,225,0.0,0.0,69,0.00,,,0.00,WUHU216HW,2013-03-30 05:53:00,
2013-03-30 00:58:00,30.0,21.0,30.00,WSW,248,0.0,0.0,69,0.00,,,0.00,WUHU216HW,2013-03-30 05:58:00,
2013-03-30 01:03:00,30.0,21.3,30.00,West,270,0.0,0.0,70,0.00,,,0.00,WUHU216HW,2013-03-30 06:03:00,
2013-03-30 01:08:00,30.2,21.3,30.00,West,270,0.0,0.0,70,0.00,,,0.00,WUHU216HW,2013-03-30 06:08:00,
2013-03-30 01:13:00,30.3,21.7,30.00,WSW,248,0.0,0.0,70,0.00,,,0.00,WUHU216HW,2013-03-30 06:13:00,
2013-03-30 01:18:00,30.3,21.7,30.00,WSW,248,0.0,0.0,70,0.00,,,0.00,WUHU216HW,2013-03-30 06:18:00,
2013-03-30 01:23:00,30.3,21.7,30.00,WSW,248,0.0,0.0,70,0.00,,,0.00,WUHU216HW,2013-03-30 06:23:00,
2013-03-30 01:28:00,30.3,21.7,29.99,SW,225,0.0,0.0,70,0.00,,,0.00,WUHU216HW,2013-03-30 06:28:00,
2013-03-30 01:33:00,30.2,21.5,29.99,SSW,203,0.0,0.0,70,0.00,,,0.00,WUHU216HW,2013-03-30 06:33:00,
2013-03-30 01:38:00,30.0,21.3,29.99,SW,225,0.0,0.0,70,0.00,,,0.00,WUHU216HW,2013-03-30 06:38:00,
2013-03-30 01:43:00,30.0,21.3,29.99,SW,225,0.0,0.0,70,0.00,,,0.00,WUHU216HW,2013-03-30 06:43:00,
2013-03-30 01:49:00,30.2,21.8,29.99,SW,225,0.0,1.1,71,0.00,,,0.00,WUHU216HW,2013-03-30 06:49:00,
2013-03-30 01:54:00,30.5,22.2,29.99,SSW,203,2.2,2.2,71,0.00,,,0.00,WUHU216HW,2013-03-30 06:54:00,
2013-03-30 01:59:00,30.7,22.4,29.99,SW,225,0.0,2.2,71,0.00,,,0.00,WUHU216HW,2013-03-30 06:59:00,
2013-03-30 02:04:00,31.1,22.7,29.98,SSW,203,0.0,1.1,71,0.00,,,0.00,WUHU216HW,2013-03-30 07:04:00,
2013-03-30 02:09:00,31.2,22.9,29.98,SSW,203,0.0,0.0,71,0.00,,,0.00,WUHU216HW,2013-03-30 07:09:00,
2013-03-30 02:14:00,31.2,22.9,29.98,SSW,203,0.0,0.0,71,0.00,,,0.00,WUHU216HW,2013-03-30 07:14:00,
2013-03-30 02:19:00,31.4,23.3,29.98,SW,225,0.0,0.0,71,0.00,,,0.00,WUHU216HW,2013-03-30 07:19:00,
2013-03-30 02:24:00,31.6,23.3,29.98,West,270,0.0,0.0,71,0.00,,,0.00,WUHU216HW,2013-03-30 07:24:00,
2013-03-30 02:29:00,31.8,23.5,29.98,SW,225,0.0,0.0,71,0.00,,,0.00,WUHU216HW,2013-03-30 07:29:00,
2013-03-30 02:34:00,32.1,23.8,29.97,SSW,203,0.0,0.0,71,0.00,,,0.00,WUHU216HW,2013-03-30 07:34:00,
2013-03-30 02:39:00,32.1,23.8,29.97,SSW,203,0.0,0.0,71,0.00,,,0.00,WUHU216HW,2013-03-30 07:39:00,
2013-03-30 02:45:00,32.1,23.8,29.97,SSW,203,0.0,0.0,71,0.00,,,0.00,WUHU216HW,2013-03-30 07:45:00,
2013-03-30 02:50:00,32.1,23.8,29.97,SSW,203,0.0,0.0,71,0.00,,,0.00,WUHU216HW,2013-03-30 07:50:00,
2013-03-30 02:55:00,32.1,23.5,29.96,SSE,158,0.0,0.0,70,0.00,,,0.00,WUHU216HW,2013-03-30 07:55:00,
2013-03-30 03:00:00,31.8,23.1,29.96,SSE,158,0.0,0.0,70,0.00,,,0.00,WUHU216HW,2013-03-30 08:00:00,
2013-03-30 03:05:00,31.8,23.1,29.95,SSE,158,0.0,0.0,70,0.00,,,0.00,WUHU216HW,2013-03-30 08:05:00,
2013-03-30 03:10:00,32.0,23.3,29.96,SSE,158,0.0,0.0,70,0.00,,,0.00,WUHU216HW,2013-03-30 08:10:00,
2013-03-30 03:15:00,32.1,23.5,29.95,SSE,158,0.0,0.0,70,0.00,,,0.00,WUHU216HW,2013-03-30 08:15:00,
2013-03-30 03:20:00,32.1,23.5,29.95,South,180,0.0,0.0,70,0.00,,,0.00,WUHU216HW,2013-03-30 08:20:00,
2013-03-30 03:25:00,32.1,23.5,29.95,SE,135,0.0,0.0,70,0.00,,,0.00,WUHU216HW,2013-03-30 08:25:00,
2013-03-30 03:30:00,32.1,23.5,29.95,SE,135,0.0,0.0,70,0.00,,,0.00,WUHU216HW,2013-03-30 08:30:00,
2013-03-30 03:36:00,32.1,23.8,29.95,SE,135,0.0,0.0,71,0.00,,,0.00,WUHU216HW,2013-03-30 08:36:00,
2013-03-30 03:41:00,32.5,24.1,29.94,ESE,113,0.0,0.0,71,0.00,,,0.00,WUHU216HW,2013-03-30 08:41:00,
2013-03-30 03:46:00,32.7,24.0,29.94,South,180,0.0,0.0,70,0.00,,,0.00,WUHU216HW,2013-03-30 08:46:00,
2013-03-30 03:51:00,32.7,24.0,29.95,South,180,0.0,0.0,70,0.00,,,0.00,WUHU216HW,2013-03-30 08:51:00,
2013-03-30 03:56:00,32.7,24.0,29.94,SSW,203,0.0,0.0,70,0.00,,,0.00,WUHU216HW,2013-03-30 08:56:00,
2013-03-30 04:01:00,32.7,24.0,29.94,SW,225,0.0,0.0,70,0.00,,,0.00,WUHU216HW,2013-03-30 09:01:00,
2013-03-30 04:06:00,32.5,23.8,29.94,SW,225,0.0,0.0,70,0.00,,,0.00,WUHU216HW,2013-03-30 09:06:00,
2013-03-30 04:11:00,32.3,23.6,29.94,SW,225,0.0,0.0,70,0.00,,,0.00,WUHU216HW,2013-03-30 09:11:00,
2013-03-30 04:16:00,32.1,23.5,29.94,WSW,248,0.0,0.0,70,0.00,,,0.00,WUHU216HW,2013-03-30 09:16:00,
2013-03-30 04:22:00,31.8,23.1,29.94,WSW,248,0.0,0.0,70,0.00,,,0.00,WUHU216HW,2013-03-30 09:22:00,
2013-03-30 04:27:00,31.8,23.5,29.93,SW,225,3.3,3.3,71,0.00,,,0.00,WUHU216HW,2013-03-30 09:27:00,
2013-03-30 04:32:00,31.6,23.3,29.94,SSW,203,0.0,3.3,71,0.00,,,0.00,WUHU216HW,2013-03-30 09:32:00,
2013-03-30 04:34:00,31.6,23.3,29.94,SSW,203,0.0,3.3,71,0.00,,,0.00,WUHU216HW,2013-03-30 09:34:00,
2013-03-30 04:39:00,31.2,22.9,29.94,SSW,203,0.0,0.0,71,0.00,,,0.00,WUHU216HW,2013-03-30 09:39:00,
2013-03-30 04:44:00,31.1,22.7,29.93,West,270,0.0,0.0,71,0.00,,,0.00,WUHU216HW,2013-03-30 09:44:00,
2013-03-30 04:49:00,30.9,22.6,29.93,SSW,203,0.0,0.0,71,0.00,,,0.00,WUHU216HW,2013-03-30 09:49:00,
2013-03-30 04:54:00,31.1,22.7,29.93,SSW,203,0.0,0.0,71,0.00,,,0.00,WUHU216HW,2013-03-30 09:54:00,
2013-03-30 04:59:00,30.9,22.6,29.93,SSW,203,0.0,0.0,71,0.00,,,0.00,WUHU216HW,2013-03-30 09:59:00,
2013-03-30 05:04:00,31.1,23.1,29.93,WSW,248,0.0,0.0,72,0.00,,,0.00,WUHU216HW,2013-03-30 10:04:00,
2013-03-30 05:09:00,31.1,23.1,29.93,SW,225,0.0,0.0,72,0.00,,,0.00,WUHU216HW,2013-03-30 10:09:00,
2013-03-30 05:14:00,31.2,23.2,29.92,SSW,203,0.0,0.0,72,0.00,,,0.00,WUHU216HW,2013-03-30 10:14:00,
2013-03-30 05:19:00,31.4,23.4,29.92,SSW,203,0.0,0.0,72,0.00,,,0.00,WUHU216HW,2013-03-30 10:19:00,
2013-03-30 05:24:00,31.8,23.8,29.92,SSW,203,0.0,0.0,72,0.00,,,0.00,WUHU216HW,2013-03-30 10:24:00,
2013-03-30 05:29:00,32.1,24.1,29.92,SSW,203,0.0,0.0,72,0.00,,,0.00,WUHU216HW,2013-03-30 10:29:00,
2013-03-30 05:34:00,32.3,24.3,29.92,SW,225,0.0,0.0,72,0.00,,,0.00,WUHU216HW,2013-03-30 10:34:00,
2013-03-30 05:39:00,32.5,24.4,29.91,SW,225,0.0,0.0,72,0.00,,,0.00,WUHU216HW,2013-03-30 10:39:00,
2013-03-30 05:44:00,32.7,24.6,29.91,SSW,203,1.1,2.9,72,0.00,,,0.00,WUHU216HW,2013-03-30 10:44:00,
2013-03-30 05:49:00,33.0,24.9,29.92,West,270,0.0,3.3,72,0.00,,,0.00,WUHU216HW,2013-03-30 10:49:00,
2013-03-30 05:55:00,33.4,25.3,29.92,WSW,248,0.0,3.3,72,0.00,,,0.00,WUHU216HW,2013-03-30 10:55:00,
2013-03-30 06:00:00,33.6,25.4,29.91,SW,225,0.0,0.0,72,0.00,,,0.00,WUHU216HW,2013-03-30 11:00:00,
2013-03-30 06:05:00,33.6,25.4,29.92,SW,225,0.0,0.0,72,0.00,,,0.00,WUHU216HW,2013-03-30 11:05:00,
2013-03-30 06:10:00,33.4,24.9,29.92,SW,225,0.0,0.0,71,0.00,,,0.00,WUHU216HW,2013-03-30 11:10:00,
2013-03-30 06:15:00,33.0,24.6,29.91,SSW,203,3.1,4.0,71,0.00,,,0.00,WUHU216HW,2013-03-30 11:15:00,
2013-03-30 06:20:00,32.7,24.3,29.90,SSW,203,0.0,4.0,71,0.00,,,0.00,WUHU216HW,2013-03-30 11:20:00,
2013-03-30 06:25:00,32.3,23.8,29.90,South,180,1.5,4.9,71,0.00,,,0.00,WUHU216HW,2013-03-30 11:25:00,
2013-03-30 06:30:00,31.8,23.5,29.90,SSE,168,5.3,6.2,71,0.00,,,0.00,WUHU216HW,2013-03-30 11:30:00,
2013-03-30 06:35:00,31.8,23.8,29.90,South,180,3.9,6.2,72,0.00,,,0.00,WUHU216HW,2013-03-30 11:35:00,
2013-03-30 06:40:00,31.6,23.6,29.90,SSW,203,4.6,8.0,72,0.00,,,0.00,WUHU216HW,2013-03-30 11:40:00,
2013-03-30 06:45:00,31.6,23.6,29.89,SSW,203,4.9,8.0,72,0.00,,,0.00,WUHU216HW,2013-03-30 11:45:00,
2013-03-30 06:50:00,31.6,23.6,29.89,SSW,203,5.5,7.6,72,0.00,,,0.00,WUHU216HW,2013-03-30 11:50:00,
2013-03-30 06:55:00,31.6,23.9,29.89,South,180,6.9,7.6,73,0.00,,,0.00,WUHU216HW,2013-03-30 11:55:00,
2013-03-30 07:00:00,31.8,24.1,29.89,SSW,203,7.8,8.2,73,0.00,,,0.00,WUHU216HW,2013-03-30 12:00:00,
2013-03-30 07:05:00,31.8,24.1,29.89,SSW,203,5.1,8.2,73,0.00,,,0.00,WUHU216HW,2013-03-30 12:05:00,
2013-03-30 07:10:00,32.1,24.4,29.89,SSW,203,2.6,7.8,73,0.00,,,0.00,WUHU216HW,2013-03-30 12:10:00,
2013-03-30 07:15:00,32.3,24.6,29.88,SSE,158,3.3,3.3,73,0.00,,,0.00,WUHU216HW,2013-03-30 12:15:00,
2013-03-30 07:20:00,32.7,24.9,29.88,SSE,158,0.0,3.3,73,0.00,,,0.00,WUHU216HW,2013-03-30 12:20:00,
2013-03-30 07:25:00,32.9,24.8,29.88,South,180,0.0,3.3,72,0.00,,,0.00,WUHU216HW,2013-03-30 12:25:00,
2013-03-30 07:30:00,33.4,25.6,29.88,South,180,0.2,0.2,73,0.00,,,0.00,WUHU216HW,2013-03-30 12:30:00,
2013-03-30 07:36:00,33.6,25.4,29.89,SW,225,2.0,6.7,72,0.00,,,0.00,WUHU216HW,2013-03-30 12:36:00,
2013-03-30 07:41:00,34.3,26.1,29.89,South,180,3.8,7.3,72,0.00,,,0.00,WUHU216HW,2013-03-30 12:41:00,
2013-03-30 07:46:00,34.7,26.2,29.89,SSW,203,4.6,5.5,71,0.00,,,0.00,WUHU216HW,2013-03-30 12:46:00,
2013-03-30 07:51:00,34.7,26.2,29.89,WSW,248,3.5,5.5,71,0.00,,,0.00,WUHU216HW,2013-03-30 12:51:00,
2013-03-30 07:56:00,34.7,25.8,29.88,SSW,210,5.8,7.8,70,0.00,,,0.00,WUHU216HW,2013-03-30 12:56:00,
2013-03-30 08:01:00,34.8,26.0,29.88,SW,225,5.7,7.8,70,0.00,,,0.00,WUHU216HW,2013-03-30 13:01:00,
2013-03-30 08:06:00,35.7,26.9,29.88,South,189,6.3,7.6,70,0.00,,,0.00,WUHU216HW,2013-03-30 13:06:00,
2013-03-30 08:11:00,36.3,27.5,29.88,SSW,203,6.0,7.6,70,0.00,,,0.00,WUHU216HW,2013-03-30 13:11:00,
2013-03-30 08:16:00,36.5,27.3,29.88,SSW,203,6.4,6.4,69,0.00,,,0.00,WUHU216HW,2013-03-30 13:16:00,
2013-03-30 08:22:00,36.8,27.2,29.88,SSW,203,3.0,6.4,68,0.00,,,0.00,WUHU216HW,2013-03-30 13:22:00,
2013-03-30 08:27:00,37.0,27.6,29.87,South,180,2.9,7.8,68,0.00,,,0.00,WUHU216HW,2013-03-30 13:27:00,
2013-03-30 08:32:00,37.2,27.2,29.87,South,180,8.9,8.9,67,0.00,,,0.00,WUHU216HW,2013-03-30 13:32:00,
2013-03-30 08:37:00,37.2,27.2,29.86,SSW,203,9.1,9.1,67,0.00,,,0.00,WUHU216HW,2013-03-30 13:37:00,
2013-03-30 08:42:00,37.5,27.4,29.86,SSW,203,6.2,9.1,67,0.00,,,0.00,WUHU216HW,2013-03-30 13:42:00,
2013-03-30 08:47:00,37.7,27.3,29.86,South,180,0.0,9.1,66,0.00,,,0.00,WUHU216HW,2013-03-30 13:47:00,
2013-03-30 08:52:00,38.3,27.8,29.86,SW,225,4.0,6.9,66,0.00,,,0.00,WUHU216HW,2013-03-30 13:52:00,
2013-03-30 08:57:00,38.4,28.0,29.85,SW,214,6.5,9.6,66,0.00,,,0.00,WUHU216HW,2013-03-30 13:57:00,
2013-03-30 09:02:00,39.0,28.1,29.86,South,188,5.3,9.6,65,0.00,,,0.00,WUHU216HW,2013-03-30 14:02:00,
2013-03-30 09:07:00,39.0,27.7,29.85,South,180,6.2,9.1,64,0.00,,,0.00,WUHU216HW,2013-03-30 14:07:00,
2013-03-30 09:12:00,39.3,28.1,29.85,SSE,158,7.8,9.1,64,0.00,,,0.00,WUHU216HW,2013-03-30 14:12:00,
2013-03-30 09:17:00,39.3,28.1,29.84,SSE,167,6.9,8.0,64,0.00,,,0.00,WUHU216HW,2013-03-30 14:17:00,
2013-03-30 09:22:00,39.5,27.9,29.84,South,177,6.3,8.0,63,0.00,,,0.00,WUHU216HW,2013-03-30 14:22:00,
2013-03-30 09:28:00,39.7,28.0,29.84,South,178,6.6,7.1,63,0.00,,,0.00,WUHU216HW,2013-03-30 14:28:00,
2013-03-30 09:33:00,40.2,28.6,29.84,SSE,158,7.1,7.1,63,0.00,,,0.00,WUHU216HW,2013-03-30 14:33:00,
2013-03-30 09:38:00,40.6,28.6,29.83,SSW,195,3.5,7.1,62,0.00,,,0.00,WUHU216HW,2013-03-30 14:38:00,
2013-03-30 09:43:00,41.0,28.5,29.83,SSE,158,5.3,9.6,61,0.00,,,0.00,WUHU216HW,2013-03-30 14:43:00,
2013-03-30 09:48:00,41.3,28.9,29.83,SSE,158,8.9,9.6,61,0.00,,,0.00,WUHU216HW,2013-03-30 14:48:00,
2013-03-30 09:53:00,41.5,28.7,29.83,SSW,203,10.9,10.9,60,0.00,,,0.00,WUHU216HW,2013-03-30 14:53:00,
2013-03-30 09:58:00,41.7,28.8,29.83,SSW,203,7.1,10.9,60,0.00,,,0.00,WUHU216HW,2013-03-30 14:58:00,
2013-03-30 10:03:00,41.7,28.8,29.82,SSW,203,9.4,10.5,60,0.00,,,0.00,WUHU216HW,2013-03-30 15:03:00,
2013-03-30 10:08:00,42.0,28.7,29.82,SSW,203,9.3,10.5,59,0.00,,,0.00,WUHU216HW,2013-03-30 15:08:00,
2013-03-30 10:13:00,42.4,29.0,29.82,South,175,8.4,10.0,59,0.00,,,0.00,WUHU216HW,2013-03-30 15:13:00,
2013-03-30 10:18:00,42.9,28.9,29.82,SSE,158,6.0,10.0,58,0.00,,,0.00,WUHU216HW,2013-03-30 15:18:00,
2013-03-30 10:23:00,43.5,29.6,29.82,South,183,7.7,8.7,58,0.00,,,0.00,WUHU216HW,2013-03-30 15:23:00,
2013-03-30 10:28:00,44.4,30.1,29.82,SSW,203,7.1,8.7,57,0.00,,,0.00,WUHU216HW,2013-03-30 15:28:00,
2013-03-30 10:33:00,44.7,30.0,29.81,SSE,158,7.8,8.7,56,0.00,,,0.00,WUHU216HW,2013-03-30 15:33:00,
2013-03-30 10:38:00,44.9,29.7,29.81,South,171,6.3,8.7,55,0.00,,,0.00,WUHU216HW,2013-03-30 15:38:00,
2013-03-30 10:43:00,45.5,30.2,29.81,South,187,5.8,10.9,55,0.00,,,0.00,WUHU216HW,2013-03-30 15:43:00,
2013-03-30 10:48:00,45.6,30.3,29.80,South,190,7.7,10.9,55,0.00,,,0.00,WUHU216HW,2013-03-30 15:48:00,
2013-03-30 10:53:00,46.0,30.2,29.81,SSW,194,8.9,10.9,54,0.00,,,0.00,WUHU216HW,2013-03-30 15:53:00,
2013-03-30 10:58:00,45.3,29.5,29.81,SSW,203,8.4,11.4,54,0.00,,,0.00,WUHU216HW,2013-03-30 15:58:00,
2013-03-30 11:04:00,44.6,29.1,29.81,SSW,203,8.2,11.4,54,0.00,,,0.00,WUHU216HW,2013-03-30 16:04:00,
2013-03-30 11:09:00,44.2,29.0,29.80,South,180,10.0,12.7,55,0.00,,,0.00,WUHU216HW,2013-03-30 16:09:00,
2013-03-30 11:14:00,44.0,29.3,29.80,SSW,205,6.4,12.7,56,0.00,,,0.00,WUHU216HW,2013-03-30 16:14:00,
2013-03-30 11:19:00,44.7,30.0,29.80,South,190,8.8,10.0,56,0.00,,,0.00,WUHU216HW,2013-03-30 16:19:00,
2013-03-30 11:24:00,45.3,30.6,29.79,SSW,203,9.6,10.0,56,0.00,,,0.00,WUHU216HW,2013-03-30 16:24:00,
2013-03-30 11:29:00,46.5,31.1,29.79,South,180,2.9,9.6,55,0.00,,,0.00,WUHU216HW,2013-03-30 16:29:00,
2013-03-30 11:34:00,47.6,31.7,29.79,SW,225,8.2,11.4,54,0.00,,,0.00,WUHU216HW,2013-03-30 16:34:00,
2013-03-30 11:39:00,47.4,31.2,29.79,SSW,203,7.8,11.4,53,0.00,,,0.00,WUHU216HW,2013-03-30 16:39:00,
2013-03-30 11:44:00,47.1,30.7,29.79,SSW,203,7.6,10.5,53,0.00,,,0.00,WUHU216HW,2013-03-30 16:44:00,
2013-03-30 11:49:00,46.0,29.7,29.79,South,180,3.8,10.5,53,0.00,,,0.00,WUHU216HW,2013-03-30 16:49:00,
2013-03-30 11:54:00,45.3,29.5,29.79,SSW,212,5.5,10.5,54,0.00,,,0.00,WUHU216HW,2013-03-30 16:54:00,
2013-03-30 12:00:00,44.6,29.2,29.79,SSW,192,7.6,10.5,55,0.00,,,0.00,WUHU216HW,2013-03-30 17:00:00,
2013-03-30 12:05:00,44.0,29.3,29.79,SSW,203,6.1,9.8,56,0.00,,,0.00,WUHU216HW,2013-03-30 17:05:00,
2013-03-30 12:10:00,43.5,29.2,29.78,SSW,203,7.1,9.3,57,0.00,,,0.00,WUHU216HW,2013-03-30 17:10:00,
2013-03-30 12:15:00,43.5,29.0,29.78,SSW,203,4.7,10.2,58,0.00,,,0.00,WUHU216HW,2013-03-30 17:15:00,
2013-03-30 12:20:00,43.3,29.4,29.78,SSW,203,9.3,10.2,58,0.00,,,0.00,WUHU216HW,2013-03-30 17:20:00,
2013-03-30 12:25:00,43.1,29.7,29.77,SSW,203,6.7,9.3,59,0.00,,,0.00,WUHU216HW,2013-03-30 17:25:00,
2013-03-30 12:30:00,43.1,29.7,29.77,South,180,8.5,10.0,59,0.00,,,0.00,WUHU216HW,2013-03-30 17:30:00,
2013-03-30 12:35:00,43.5,30.1,29.77,SSW,203,6.8,10.0,59,0.00,,,0.00,WUHU216HW,2013-03-30 17:35:00,
2013-03-30 12:40:00,43.5,30.1,29.77,SSW,203,6.4,8.5,59,0.00,,,0.00,WUHU216HW,2013-03-30 17:40:00,
2013-03-30 12:45:00,43.7,30.2,29.77,South,180,7.6,8.9,59,0.00,,,0.00,WUHU216HW,2013-03-30 17:45:00,
2013-03-30 12:50:00,43.8,30.4,29.77,SW,225,5.3,10.0,59,0.00,,,0.00,WUHU216HW,2013-03-30 17:50:00,
2013-03-30 12:56:00,44.2,31.2,29.77,South,180,6.0,10.0,60,0.00,,,0.00,WUHU216HW,2013-03-30 17:56:00,
2013-03-30 13:01:00,44.6,31.6,29.76,South,191,4.0,7.3,60,0.00,,,0.00,WUHU216HW,2013-03-30 18:01:00,
2013-03-30 13:06:00,45.1,31.6,29.76,SSW,203,9.8,10.0,59,0.00,,,0.00,WUHU216HW,2013-03-30 18:06:00,
2013-03-30 13:11:00,45.8,32.3,29.75,SSE,158,7.3,10.0,59,0.00,,,0.00,WUHU216HW,2013-03-30 18:11:00,
2013-03-30 13:16:00,46.4,32.3,29.75,SSW,209,5.3,8.2,58,0.00,,,0.00,WUHU216HW,2013-03-30 18:16:00,
2013-03-30 13:21:00,46.9,32.8,29.75,South,180,8.0,8.5,58,0.00,,,0.00,WUHU216HW,2013-03-30 18:21:00,
2013-03-30 13:27:00,47.6,33.5,29.75,SW,222,4.4,8.5,58,0.00,,,0.00,WUHU216HW,2013-03-30 18:27:00,
2013-03-30 13:32:00,48.2,33.6,29.74,SSW,207,6.7,8.2,57,0.00,,,0.00,WUHU216HW,2013-03-30 18:32:00,
2013-03-30 13:37:00,48.3,33.8,29.73,SSW,203,7.3,7.8,57,0.00,,,0.00,WUHU216HW,2013-03-30 18:37:00,
2013-03-30 13:42:00,48.3,33.8,29.73,SSE,158,6.7,8.0,57,0.00,,,0.00,WUHU216HW,2013-03-30 18:42:00,
2013-03-30 13:47:00,48.5,33.6,29.73,SSW,203,9.3,9.8,56,0.00,,,0.00,WUHU216HW,2013-03-30 18:47:00,
2013-03-30 13:52:00,48.7,34.1,29.72,SW,214,5.9,9.8,57,0.00,,,0.00,WUHU216HW,2013-03-30 18:52:00,
2013-03-30 13:57:00,49.6,34.5,29.72,WSW,248,8.2,8.2,56,0.00,,,0.00,WUHU216HW,2013-03-30 18:57:00,
2013-03-30 14:02:00,50.3,35.2,29.72,South,180,6.4,10.9,56,0.00,,,0.00,WUHU216HW,2013-03-30 19:02:00,
2013-03-30 14:07:00,51.0,35.4,29.71,SSW,211,7.0,10.9,55,0.00,,,0.00,WUHU216HW,2013-03-30 19:07:00,
2013-03-30 14:12:00,51.4,35.7,29.72,SSW,212,5.3,8.9,55,0.00,,,0.00,WUHU216HW,2013-03-30 19:12:00,
2013-03-30 14:17:00,51.4,35.7,29.71,SSW,194,6.7,8.7,55,0.00,,,0.00,WUHU216HW,2013-03-30 19:17:00,
2013-03-30 14:23:00,51.6,35.8,29.71,SW,225,11.6,11.6,55,0.00,,,0.00,WUHU216HW,2013-03-30 19:23:00,
2013-03-30 14:28:00,51.0,35.4,29.70,SSW,212,6.8,11.6,55,0.00,,,0.00,WUHU216HW,2013-03-30 19:28:00,
2013-03-30 14:33:00,50.7,35.0,29.70,SSW,192,8.7,9.6,55,0.00,,,0.00,WUHU216HW,2013-03-30 19:33:00,
2013-03-30 14:38:00,50.1,35.0,29.70,SSW,203,3.2,9.6,56,0.00,,,0.00,WUHU216HW,2013-03-30 19:38:00,
2013-03-30 14:43:00,50.0,35.3,29.70,South,180,9.3,9.3,57,0.00,,,0.00,WUHU216HW,2013-03-30 19:43:00,
2013-03-30 14:48:00,50.3,35.6,29.70,South,180,8.2,9.3,57,0.00,,,0.00,WUHU216HW,2013-03-30 19:48:00,
2013-03-30 14:53:00,50.9,36.1,29.70,SSW,203,7.3,8.2,57,0.00,,,0.00,WUHU216HW,2013-03-30 19:53:00,
2013-03-30 14:58:00,51.6,36.7,29.70,SSW,192,6.8,8.9,57,0.00,,,0.00,WUHU216HW,2013-03-30 19:58:00,
2013-03-30 15:03:00,51.9,36.6,29.70,SSW,194,8.0,9.8,56,0.00,,,0.00,WUHU216HW,2013-03-30 20:03:00,
2013-03-30 15:08:00,52.7,37.3,29.69,SSW,200,5.8,9.8,56,0.00,,,0.00,WUHU216HW,2013-03-30 20:08:00,
2013-03-30 15:13:00,52.8,37.5,29.69,SSW,203,6.9,11.6,56,0.00,,,0.00,WUHU216HW,2013-03-30 20:13:00,
2013-03-30 15:18:00,52.8,37.5,29.69,SW,214,7.1,11.6,56,0.00,,,0.00,WUHU216HW,2013-03-30 20:18:00,
2013-03-30 15:23:00,53.4,37.5,29.69,SSW,203,8.7,11.8,55,0.00,,,0.00,WUHU216HW,2013-03-30 20:23:00,
2013-03-30 15:28:00,53.7,37.9,29.68,SSW,203,7.1,11.8,55,0.00,,,0.00,WUHU216HW,2013-03-30 20:28:00,
2013-03-30 15:33:00,53.4,37.5,29.68,SW,216,8.3,9.6,55,0.00,,,0.00,WUHU216HW,2013-03-30 20:33:00,
2013-03-30 15:38:00,53.0,37.2,29.68,SSW,203,6.2,9.6,55,0.00,,,0.00,WUHU216HW,2013-03-30 20:38:00,
2013-03-30 15:43:00,52.5,36.7,29.68,SSW,203,7.3,8.0,55,0.00,,,0.00,WUHU216HW,2013-03-30 20:43:00,
2013-03-30 15:49:00,52.8,37.0,29.67,SSW,203,7.3,8.7,55,0.00,,,0.00,WUHU216HW,2013-03-30 20:49:00,
2013-03-30 15:54:00,52.5,36.7,29.67,SSW,203,6.4,8.7,55,0.00,,,0.00,WUHU216HW,2013-03-30 20:54:00,
2013-03-30 15:59:00,51.6,35.8,29.67,SSW,211,6.1,7.6,55,0.00,,,0.00,WUHU216HW,2013-03-30 20:59:00,
2013-03-30 16:04:00,50.7,35.5,29.67,SSW,203,5.5,8.7,56,0.00,,,0.00,WUHU216HW,2013-03-30 21:04:00,
2013-03-30 16:09:00,50.1,35.4,29.67,SW,225,2.6,8.7,57,0.00,,,0.00,WUHU216HW,2013-03-30 21:09:00,
2013-03-30 16:14:00,49.8,35.6,29.67,SSW,203,3.8,7.3,58,0.00,,,0.00,WUHU216HW,2013-03-30 21:14:00,
2013-03-30 16:19:00,49.2,35.1,29.66,SSW,203,5.1,7.8,58,0.00,,,0.00,WUHU216HW,2013-03-30 21:19:00,
2013-03-30 16:24:00,48.7,35.0,29.66,South,180,5.8,7.8,59,0.00,,,0.00,WUHU216HW,2013-03-30 21:24:00,
2013-03-30 16:29:00,48.2,35.0,29.66,South,180,5.3,6.4,60,0.00,,,0.00,WUHU216HW,2013-03-30 21:29:00,
2013-03-30 16:34:00,47.8,35.0,29.66,SSW,203,7.3,7.3,61,0.00,,,0.00,WUHU216HW,2013-03-30 21:34:00,
2013-03-30 16:39:00,47.4,35.0,29.66,SSW,203,8.2,8.2,62,0.00,,,0.00,WUHU216HW,2013-03-30 21:39:00,
2013-03-30 16:44:00,47.4,35.0,29.66,SSW,203,5.1,10.0,62,0.00,,,0.00,WUHU216HW,2013-03-30 21:44:00,
2013-03-30 16:49:00,47.3,35.3,29.65,SW,225,4.9,10.0,63,0.00,,,0.00,WUHU216HW,2013-03-30 21:49:00,
2013-03-30 16:54:00,47.1,34.7,29.65,SSW,213,7.4,7.8,62,0.00,,,0.00,WUHU216HW,2013-03-30 21:54:00,
2013-03-30 16:59:00,46.7,34.6,29.65,SSW,203,2.0,7.8,63,0.00,,,0.00,WUHU216HW,2013-03-30 21:59:00,
2013-03-30 17:04:00,46.2,34.6,29.65,SW,225,5.3,6.7,64,0.00,,,0.00,WUHU216HW,2013-03-30 22:04:00,
2013-03-30 17:09:00,46.0,34.5,29.65,SSW,203,3.5,6.7,64,0.00,,,0.00,WUHU216HW,2013-03-30 22:09:00,
2013-03-30 17:14:00,45.8,34.7,29.64,SSW,203,0.0,6.4,65,0.00,,,0.00,WUHU216HW,2013-03-30 22:14:00,
2013-03-30 17:19:00,45.6,34.5,29.64,SSW,203,4.4,5.5,65,0.00,,,0.00,WUHU216HW,2013-03-30 22:19:00,
2013-03-30 17:24:00,45.5,34.7,29.64,SSW,203,2.0,7.1,66,0.00,,,0.00,WUHU216HW,2013-03-30 22:24:00,
2013-03-30 17:29:00,45.3,34.5,29.64,SW,225,0.0,7.1,66,0.00,,,0.00,WUHU216HW,2013-03-30 22:29:00,
2013-03-30 17:34:00,45.1,34.4,29.65,SSW,203,1.5,4.4,66,0.00,,,0.00,WUHU216HW,2013-03-30 22:34:00,
2013-03-30 17:39:00,44.7,34.4,29.66,WSW,248,0.0,2.4,67,0.00,,,0.00,WUHU216HW,2013-03-30 22:39:00,
2013-03-30 17:45:00,44.4,34.1,29.66,WSW,248,0.0,0.0,67,0.00,,,0.00,WUHU216HW,2013-03-30 22:45:00,
2013-03-30 17:50:00,44.0,33.7,29.66,WSW,248,0.0,0.0,67,0.00,,,0.00,WUHU216HW,2013-03-30 22:50:00,
2013-03-30 17:55:00,43.7,33.4,29.66,WNW,293,0.0,0.0,67,0.00,,,0.00,WUHU216HW,2013-03-30 22:55:00,
2013-03-30 18:00:00,43.5,33.6,29.66,SW,225,0.0,0.0,68,0.00,,,0.00,WUHU216HW,2013-03-30 23:00:00,
2013-03-30 18:05:00,43.5,34.0,29.66,SSW,203,0.0,0.0,69,0.00,,,0.00,WUHU216HW,2013-03-30 23:05:00,
2013-03-30 18:10:00,43.5,34.0,29.66,SSW,203,0.0,0.0,69,0.00,,,0.00,WUHU216HW,2013-03-30 23:10:00,
2013-03-30 18:15:00,43.3,33.8,29.66,SSW,203,0.0,0.0,69,0.00,,,0.00,WUHU216HW,2013-03-30 23:15:00,
2013-03-30 18:20:00,42.6,33.6,29.66,SSW,203,0.0,0.0,70,0.00,,,0.00,WUHU216HW,2013-03-30 23:20:00,
2013-03-30 18:25:00,42.6,33.6,29.65,SSW,203,0.0,0.0,70,0.00,,,0.00,WUHU216HW,2013-03-30 23:25:00,
2013-03-30 18:30:00,42.4,33.7,29.65,SSW,203,0.0,0.0,71,0.00,,,0.00,WUHU216HW,2013-03-30 23:30:00,
2013-03-30 18:35:00,41.9,33.5,29.65,SSW,203,0.0,0.0,72,0.00,,,0.00,WUHU216HW,2013-03-30 23:35:00,
2013-03-30 18:41:00,41.7,33.3,29.65,SSW,203,0.0,0.0,72,0.00,,,0.00,WUHU216HW,2013-03-30 23:41:00,
2013-03-30 18:46:00,41.5,33.1,29.65,South,180,0.0,0.0,72,0.02,,,0.02,WUHU216HW,2013-03-30 23:46:00,
2013-03-30 18:51:00,41.0,32.6,29.65,South,180,0.0,0.0,72,0.02,,,0.02,WUHU216HW,2013-03-30 23:51:00,
2013-03-30 18:56:00,40.6,32.6,29.64,South,180,0.0,0.0,73,0.02,,,0.02,WUHU216HW,2013-03-30 23:56:00,
2013-03-30 19:01:00,40.4,32.4,29.64,South,180,0.0,0.0,73,0.02,,,0.02,WUHU216HW,2013-03-31 00:01:00,
2013-03-30 19:06:00,40.2,32.2,29.64,South,180,0.0,0.0,73,0.02,,,0.02,WUHU216HW,2013-03-31 00:06:00,
2013-03-30 19:11:00,40.1,32.4,29.64,South,180,0.0,0.0,74,0.02,,,0.02,WUHU216HW,2013-03-31 00:11:00,
2013-03-30 19:16:00,39.9,32.5,29.64,South,180,0.0,0.0,75,0.02,,,0.02,WUHU216HW,2013-03-31 00:16:00,
2013-03-30 19:21:00,39.9,32.5,29.63,South,180,0.0,0.0,75,0.02,,,0.02,WUHU216HW,2013-03-31 00:21:00,
2013-03-30 19:26:00,39.9,32.5,29.63,South,180,0.0,0.0,75,0.02,,,0.02,WUHU216HW,2013-03-31 00:26:00,
2013-03-30 19:31:00,39.7,32.4,29.63,South,180,0.0,0.0,75,0.04,,,0.04,WUHU216HW,2013-03-31 00:31:00,
2013-03-30 19:37:00,39.7,32.4,29.63,South,180,0.0,0.0,75,0.04,,,0.04,WUHU216HW,2013-03-31 00:37:00,
2013-03-30 19:42:00,39.5,32.5,29.62,South,180,0.0,0.0,76,0.02,,,0.04,WUHU216HW,2013-03-31 00:42:00,
2013-03-30 19:47:00,39.5,32.5,29.62,South,180,0.0,0.0,76,0.02,,,0.04,WUHU216HW,2013-03-31 00:47:00,
2013-03-30 19:52:00,39.5,32.5,29.62,South,180,0.0,0.0,76,0.02,,,0.04,WUHU216HW,2013-03-31 00:52:00,
2013-03-30 19:57:00,39.7,32.5,29.62,South,180,0.0,0.0,76,0.02,,,0.04,WUHU216HW,2013-03-31 00:57:00,
2013-03-30 20:02:00,39.5,32.9,29.62,South,180,0.0,0.0,76,0.02,,,0.04,WUHU216HW,2013-03-31 01:02:00,
2013-03-30 20:07:00,39.3,32.9,29.62,SW,225,0.0,0.0,77,0.02,,,0.04,WUHU216HW,2013-03-31 01:07:00,
2013-03-30 20:12:00,39.3,32.7,29.62,SW,225,1.1,1.1,77,0.02,,,0.04,WUHU216HW,2013-03-31 01:12:00,
2013-03-30 20:17:00,39.5,33.2,29.61,SW,225,0.0,1.1,78,0.02,,,0.04,WUHU216HW,2013-03-31 01:17:00,
2013-03-30 20:22:00,39.7,33.7,29.61,SW,225,0.0,1.5,79,0.02,,,0.04,WUHU216HW,2013-03-31 01:22:00,
2013-03-30 20:27:00,39.7,33.7,29.61,SW,225,0.0,3.3,79,0.02,,,0.04,WUHU216HW,2013-03-31 01:27:00,
2013-03-30 20:32:00,39.9,34.2,29.61,SW,225,0.0,3.3,80,0.00,,,0.04,WUHU216HW,2013-03-31 01:32:00,
2013-03-30 20:38:00,39.9,34.2,29.61,SW,225,0.0,1.7,80,0.00,,,0.04,WUHU216HW,2013-03-31 01:38:00,
2013-03-30 20:43:00,40.1,34.4,29.61,SW,225,0.0,0.0,80,0.00,,,0.04,WUHU216HW,2013-03-31 01:43:00,
2013-03-30 20:48:00,40.2,34.8,29.61,SSW,203,0.0,0.0,81,0.00,,,0.04,WUHU216HW,2013-03-31 01:48:00,
2013-03-30 20:53:00,40.2,34.8,29.61,SW,225,0.0,0.0,81,0.00,,,0.04,WUHU216HW,2013-03-31 01:53:00,
2013-03-30 20:58:00,40.2,34.8,29.61,SW,225,0.0,0.0,81,0.00,,,0.04,WUHU216HW,2013-03-31 01:58:00,
2013-03-30 21:03:00,40.2,35.1,29.61,WSW,248,0.0,0.0,82,0.00,,,0.04,WUHU216HW,2013-03-31 02:03:00,
2013-03-30 21:08:00,40.2,35.1,29.61,WSW,248,0.0,0.8,82,0.00,,,0.04,WUHU216HW,2013-03-31 02:08:00,
2013-03-30 21:13:00,40.4,35.6,29.61,SW,225,0.0,0.8,83,0.00,,,0.04,WUHU216HW,2013-03-31 02:13:00,
2013-03-30 21:18:00,40.4,35.6,29.61,SW,225,0.6,0.6,83,0.00,,,0.04,WUHU216HW,2013-03-31 02:18:00,
2013-03-30 21:23:00,40.4,35.6,29.61,SW,225,3.8,3.8,83,0.00,,,0.04,WUHU216HW,2013-03-31 02:23:00,
2013-03-30 21:28:00,40.4,35.6,29.61,West,270,0.0,3.8,83,0.00,,,0.04,WUHU216HW,2013-03-31 02:28:00,
2013-03-30 21:33:00,40.6,36.1,29.61,SW,225,0.0,0.0,84,0.00,,,0.04,WUHU216HW,2013-03-31 02:33:00,
2013-03-30 21:38:00,40.4,35.9,29.61,WSW,248,0.0,0.0,84,0.00,,,0.04,WUHU216HW,2013-03-31 02:38:00,
2013-03-30 21:43:00,40.2,35.7,29.61,WSW,248,0.0,0.0,84,0.00,,,0.04,WUHU216HW,2013-03-31 02:43:00,
2013-03-30 21:49:00,40.1,35.6,29.61,WSW,248,0.0,0.0,84,0.00,,,0.04,WUHU216HW,2013-03-31 02:49:00,
2013-03-30 21:53:00,40.1,35.6,29.61,WSW,248,0.0,0.0,84,0.00,,,0.04,WUHU216HW,2013-03-31 02:53:00,
2013-03-30 21:59:00,40.1,35.6,29.61,WSW,248,0.0,0.0,84,0.00,,,0.04,WUHU216HW,2013-03-31 02:59:00,
2013-03-30 22:04:00,40.1,35.6,29.61,WNW,293,0.0,0.0,84,0.00,,,0.04,WUHU216HW,2013-03-31 03:04:00,
2013-03-30 22:09:00,40.2,36.0,29.61,WSW,248,0.0,0.0,85,0.00,,,0.04,WUHU216HW,2013-03-31 03:09:00,
2013-03-30 22:14:00,40.2,36.0,29.60,SW,225,0.0,0.0,85,0.00,,,0.04,WUHU216HW,2013-03-31 03:14:00,
2013-03-30 22:19:00,40.2,36.0,29.61,SW,225,0.0,0.0,85,0.00,,,0.04,WUHU216HW,2013-03-31 03:19:00,
2013-03-30 22:24:00,40.2,36.2,29.61,SSW,203,0.0,0.0,85,0.00,,,0.04,WUHU216HW,2013-03-31 03:24:00,
2013-03-30 22:29:00,40.4,36.2,29.61,WSW,248,0.0,0.0,85,0.00,,,0.04,WUHU216HW,2013-03-31 03:29:00,
2013-03-30 22:34:00,40.6,36.7,29.61,West,270,0.0,2.0,86,0.00,,,0.04,WUHU216HW,2013-03-31 03:34:00,
2013-03-30 22:39:00,40.6,36.7,29.61,West,270,0.0,2.0,86,0.00,,,0.04,WUHU216HW,2013-03-31 03:39:00,
2013-03-30 22:44:00,40.6,36.7,29.60,WNW,293,0.0,0.0,86,0.00,,,0.04,WUHU216HW,2013-03-31 03:44:00,
2013-03-30 22:49:00,40.6,36.7,29.61,WNW,293,0.0,0.0,86,0.00,,,0.04,WUHU216HW,2013-03-31 03:49:00,
2013-03-30 22:54:00,40.6,36.7,29.61,West,270,0.0,0.0,86,0.00,,,0.04,WUHU216HW,2013-03-31 03:54:00,
2013-03-30 22:59:00,40.6,37.0,29.61,WSW,248,5.5,5.5,87,0.00,,,0.04,WUHU216HW,2013-03-31 03:59:00,
2013-03-30 23:00:00,40.6,37.0,29.61,WSW,248,5.5,5.5,87,0.00,,,0.04,WUHU216HW,2013-03-31 04:00:00,
2013-03-30 23:01:00,40.6,37.0,29.61,WSW,248,5.5,5.5,87,0.00,,,0.04,WUHU216HW,2013-03-31 04:01:00,
2013-03-30 23:03:00,40.6,37.0,29.61,NW,315,0.0,5.5,87,0.00,,,0.04,WUHU216HW,2013-03-31 04:03:00,
2013-03-30 23:08:00,40.6,37.0,29.61,SW,225,0.0,5.5,87,0.00,,,0.04,WUHU216HW,2013-03-31 04:08:00,
2013-03-30 23:13:00,40.6,37.0,29.61,WNW,293,0.0,0.0,87,0.00,,,0.04,WUHU216HW,2013-03-31 04:13:00,
2013-03-30 23:18:00,40.2,36.9,29.60,West,270,0.0,0.0,88,0.00,,,0.04,WUHU216HW,2013-03-31 04:18:00,
2013-03-30 23:23:00,40.2,36.9,29.61,WNW,293,0.0,0.0,88,0.00,,,0.04,WUHU216HW,2013-03-31 04:23:00,
2013-03-30 23:28:00,40.1,36.8,29.60,WSW,248,0.0,0.0,88,0.00,,,0.04,WUHU216HW,2013-03-31 04:28:00,
2013-03-30 23:33:00,39.9,36.6,29.60,WSW,248,0.0,2.4,88,0.00,,,0.04,WUHU216HW,2013-03-31 04:33:00,
2013-03-30 23:38:00,39.9,36.6,29.60,WNW,293,0.0,2.4,88,0.00,,,0.04,WUHU216HW,2013-03-31 04:38:00,
2013-03-30 23:43:00,39.9,36.6,29.60,WNW,293,0.0,0.0,88,0.00,,,0.04,WUHU216HW,2013-03-31 04:43:00,
2013-03-30 23:48:00,39.7,36.4,29.60,WSW,248,0.0,0.0,88,0.00,,,0.04,WUHU216HW,2013-03-31 04:48:00,
2013-03-30 23:53:00,39.5,36.2,29.60,WNW,293,0.0,0.0,88,0.00,,,0.04,WUHU216HW,2013-03-31 04:53:00,
2013-03-30 23:58:00,39.5,36.5,29.60,WSW,248,0.0,0.0,89,0.00,,,0.04,WUHU216HW,2013-03-31 04:58:00,